Wind_Speed
16 17 18 19 18 19 21 22 23 25 26 25 24 21 21 21 20 20 15 19 19 20 18 20 21 22 23 28 33 32 32 41 37 34 30 22 24 28 18 14 17 22 22 19 22
17 17 18 18 18 18 18 19 20 21 23 24 26 24 22 21 21 19 19 18 18 17 19 19 20 20 23 27 27 30 36 39 28 30 28 28 20 28 22 21 21 24 18 24 23
17 18 19 19 19 20 20 21 21 21 22 21 23 26 22 21 21 20 19 18 17 17 19 19 21 21 22 22 25 26 39 30 31 28 28 23 27 25 27 26 26 27 23 21 27
18 19 19 19 20 20 21 22 24 23 22 22 22 23 22 21 10 13 14 14 13 12 16 20 22 23 22 24 23 26 27 33 26 30 25 28 21 28 30 30 28 43 34 24 25
20 20 21 21 21 21 23 23 23 24 23 22 21 22 22 23 20 21 20 16 13 13 17 20 22 22 22 21 21 28 23 25 30 28 26 26 32 31 30 30 33 39 40 34 30
20 20 21 22 23 24 24 25 25 25 23 23 21 21 22 23 20 22 23 19 18 14 15 21 21 19 16 22 24 21 25 26 22 28 33 31 30 28 33 29 35 40 48 25 29
22 23 24 24 25 25 25 25 27 26 23 23 21 22 23 16 19 20 21 20 21 18 16 18 22 21 18 16 22 24 21 24 29 26 26 32 37 39 32 28 32 46 46 41 22
26 26 26 26 26 27 28 29 28 27 25 23 21 23 21 18 22 19 21 21 21 19 18 20 25 22 15 14 12 21 25 30 26 25 31 26 44 41 33 31 26 34 50 52 29
27 27 28 28 28 28 29 30 29 28 25 23 21 21 21 21 23 21 22 24 22 19 19 21 24 22 16 14 14 23 27 27 25 28 28 35 39 35 33 32 36 31 35 47 45
28 28 28 28 28 29 29 31 31 30 25 22 21 18 20 13 22 22 23 23 21 19 21 23 24 19 20 21 24 23 26 24 25 25 27 40 36 33 30 29 34 34 39 32 55
30 30 29 28 30 30 31 29 30 31 25 20 17 10 18 18 19 20 23 22 19 18 21 26 24 29 23 24 20 13 15 18 21 21 29 35 39 35 37 30 30 33 37 45 47
30 30 30 28 30 30 30 27 27 28 32 25 22 26 21 20 20 24 26 23 22 24 22 23 30 23 19 22 21 18 18 17 12 17 23 31 31 34 31 35 32 29 28 42 55
30 29 28 27 27 28 27 26 23 25 32 33 28 29 27 27 24 27 28 21 20 24 29 25 14 22 21 23 24 22 20 18 12 7 13 19 28 28 28 25 25 24 19 29 45
31 30 31 28 28 25 25 23 21 19 19 24 23 24 31 33 36 24 27 25 19 23 25 23 20 18 24 26 25 23 20 19 15 12 20 20 17 25 23 24 23 20 19 12 37
34 33 32 29 22 22 26 20 17 11 8 5 12 15 17 39 22 34 27 29 22 18 24 24 22 19 27 24 22 23 16 18 19 21 22 17 16 19 19 18 21 17 17 20 22
32 30 31 26 23 24 21 18 15 12 12 9 10 11 17 27 25 21 33 31 22 20 24 20 14 21 20 18 19 18 20 16 20 23 19 23 18 14 17 16 16 15 13 10 19
30 27 29 31 27 26 24 18 13 17 9 18 17 13 18 23 32 27 34 37 33 31 27 23 22 18 18 17 13 17 17 12 13 17 15 25 18 15 9 15 16 17 16 15 16
30 27 26 28 28 26 21 18 21 19 26 13 6 12 17 22 33 29 31 36 34 29 24 25 25 27 19 20 15 20 20 17 14 14 17 12 10 13 10 16 17 19 16 13 10
33 29 29 29 23 21 17 25 31 27 25 22 21 18 16 26 14 33 33 36 35 33 30 27 25 21 25 19 20 18 20 19 13 8 9 18 12 3 13 17 17 15 13 12 9
34 28 27 20 18 19 19 30 28 26 23 17 22 18 14 25 27 23 32 32 32 31 28 15 20 19 22 21 21 20 21 15 16 11 13 8 17 13 18 14 16 15 14 13 12
31 30 22 16 17 17 20 23 19 24 21 22 25 18 13 13 28 22 24 16 30 32 30 16 14 14 17 23 24 22 20 18 11 17 10 10 12 10 15 13 14 18 16 16 17
31 24 24 17 11 13 16 20 26 22 21 21 26 24 22 16 18 15 28 21 28 30 31 26 18 17 19 10 18 15 16 23 19 15 15 15 3 11 14 13 14 17 17 17 16
32 26 13 8 13 12 13 15 19 23 26 17 17 18 19 12 9 30 21 22 32 28 30 25 14 16 10 13 15 14 13 12 13 8 16 16 6 9 14 15 13 18 17 16 17
28 16 12 12 11 11 13 13 11 14 16 12 15 12 15 16 17 21 17 22 29 27 26 27 15 13 9 6 19 21 18 14 13 12 16 17 14 15 16 14 12 12 11 12 14
18 13 12 10 11 15 15 16 15 16 12 12 9 11 15 8 9 15 24 30 20 24 24 18 17 20 14 6 8 12 13 12 12 10 11 7 10 11 14 14 13 14 17 16 17
15 13 16 16 11 11 11 10 10 13 15 9 10 9 9 11 11 11 21 25 25 26 23 21 13 15 10 12 8 8 9 10 10 11 10 8 9 10 13 13 12 10 17 17 25
12 15 17 15 12 8 8 9 11 14 9 2 7 6 13 13 17 15 19 18 18 21 20 14 17 16 11 9 5 9 15 15 12 11 11 12 8 8 8 8 9 8 12 17 20
Wind_Direction
329 326 323 317 313 309 307 303 296 288 283 280 279 275 277 274 273 272 256 245 248 253 246 240 240 237 229 224 223 219 224 233 230 230 233 236 230 214 223 233 224 224 205 202 208
336 334 330 327 325 322 318 314 307 302 293 283 274 270 268 271 267 269 255 250 251 251 246 238 240 237 235 227 226 219 227 230 233 232 234 227 224 218 221 231 231 221 215 211 196
333 332 332 330 328 325 321 316 310 304 298 292 279 266 263 267 269 269 253 248 247 249 250 244 240 240 230 230 223 229 232 237 232 232 227 226 228 218 222 221 213 214 206 204 190
331 329 328 325 323 321 318 316 313 308 303 296 287 268 255 257 263 262 246 240 235 240 247 243 239 236 231 224 225 229 238 233 228 232 230 229 227 224 226 220 223 214 221 198 191
325 323 322 319 315 315 315 314 311 310 306 297 286 269 253 248 245 255 244 241 234 235 244 241 236 231 225 230 230 228 234 241 231 231 231 235 233 227 227 219 228 214 221 203 190
318 314 312 310 310 311 312 311 309 310 305 297 284 269 251 250 248 249 247 242 237 239 252 245 236 225 233 231 229 240 237 233 233 236 236 237 235 229 228 221 226 221 219 200 193
314 313 310 308 307 308 306 304 305 308 302 295 283 268 249 239 244 245 244 239 237 245 248 240 238 230 233 232 238 233 238 235 233 230 235 235 241 229 228 235 233 222 221 218 204
314 312 310 308 306 304 304 303 302 303 300 291 277 265 249 241 242 244 238 237 235 245 247 226 232 226 221 227 241 230 232 237 236 238 231 228 242 232 234 233 238 227 227 223 213
314 311 310 310 308 304 300 297 298 300 297 288 274 259 257 246 236 236 230 231 233 238 227 216 222 216 211 216 227 228 231 232 241 235 233 230 244 234 233 241 239 233 238 224 203
314 311 308 305 301 299 297 296 298 296 292 286 272 256 251 248 233 230 220 222 228 222 210 203 205 202 203 207 218 222 231 236 239 237 232 230 238 230 232 235 241 239 239 252 211
313 311 307 304 300 299 297 299 297 293 285 277 252 235 250 235 231 220 214 217 219 205 195 198 196 206 207 207 214 249 239 233 244 246 236 235 236 233 232 241 239 241 243 236 221
313 309 309 307 304 301 300 297 289 285 286 272 258 242 236 228 211 208 207 211 211 194 190 192 214 213 207 209 216 230 249 240 263 240 242 235 239 234 231 233 236 240 249 236 221
318 316 316 317 311 305 300 293 292 288 288 282 272 251 231 226 209 218 211 203 214 195 200 204 217 209 211 208 215 223 241 240 250 289 211 227 239 232 223 231 228 236 247 247 225
314 311 309 310 309 307 298 294 286 285 296 283 275 261 239 221 223 216 215 204 199 207 208 215 212 208 209 211 214 230 230 239 242 251 224 212 234 214 215 222 219 221 232 243 208
312 306 305 306 302 302 295 287 268 265 274 271 254 247 234 211 219 208 211 201 210 202 194 212 210 203 209 214 218 234 229 238 245 245 257 224 255 225 192 207 212 220 230 220 206
310 301 297 293 299 301 294 275 245 232 242 249 237 244 214 200 202 204 202 206 209 213 217 215 215 211 212 217 227 237 230 241 246 244 240 243 232 194 178 204 186 185 199 206 205
305 297 293 294 298 293 290 260 223 236 252 252 238 232 214 206 197 193 191 196 204 205 209 215 215 205 201 210 215 200 200 205 213 224 238 226 221 246 107 178 174 186 192 192 182
301 296 292 292 294 291 285 225 235 246 241 252 256 252 228 209 203 200 194 199 205 207 210 205 212 208 206 210 203 206 210 230 207 209 214 194 227 233 188 196 186 192 189 198 209
304 297 291 297 297 285 274 222 235 244 260 262 254 253 237 233 227 208 203 205 205 203 207 208 217 214 214 215 214 205 218 234 264 261 272 178 191 158 187 191 196 206 217 234 238
313 307 302 294 287 281 262 246 250 248 259 254 253 255 234 222 236 219 205 211 204 202 200 214 208 208 209 209 217 230 218 205 228 237 235 183 181 217 177 176 198 202 210 224 240
316 318 313 296 292 273 246 257 263 249 248 255 261 258 238 222 215 228 207 199 200 198 196 196 196 187 188 203 211 214 221 228 248 238 225 228 230 154 176 181 182 203 206 209 212
314 318 310 300 291 266 261 262 251 243 252 259 258 259 249 254 304 253 209 204 195 194 194 203 212 195 206 190 207 204 220 223 224 223 240 263 160 166 174 177 183 206 203 203 201
317 315 296 283 277 274 286 287 288 293 241 261 255 250 250 252 275 217 197 193 181 187 190 185 193 187 180 210 223 210 224 224 241 254 222 223 201 159 167 165 166 190 190 194 201
320 320 295 280 273 284 314 311 306 291 258 261 249 242 242 263 243 232 202 172 183 177 191 200 194 201 226 250 197 202 207 206 211 226 243 249 160 186 186 176 174 189 210 229 239
320 307 295 285 299 300 292 295 301 314 267 273 262 268 201 212 229 212 180 183 187 177 169 178 198 200 187 157 166 187 193 191 206 223 219 216 215 184 197 197 206 224 250 261 265
306 307 300 299 302 302 304 294 307 324 306 246 262 252 233 248 214 121 150 177 181 182 193 184 164 168 174 206 210 209 213 217 216 214 218 211 214 213 217 206 219 235 252 262 265
290 276 279 292 293 311 290 302 311 318 318 44 299 297 214 231 229 238 185 154 137 160 165 154 155 172 173 182 208 246 235 229 223 225 220 232 232 213 215 206 212 223 247 247 260
Height
3127 3125 3123 3121 3119 3117 3114 3112 3110 3108 3107 3106 3105 3104 3103 3103 3101 3102 3102 3102 3102 3105 3108 3109 3110 3112 3116 3118 3121 3125 3129 3124 3131 3136 3140 3145 3144 3147 3147 3149 3149 3153 3153 3152 3155
3126 3123 3120 3119 3116 3113 3111 3108 3105 3103 3101 3100 3099 3099 3099 3098 3097 3097 3097 3096 3097 3100 3101 3104 3105 3108 3111 3113 3116 3120 3120 3122 3131 3134 3136 3140 3141 3144 3146 3146 3146 3148 3147 3150 3152
3122 3119 3117 3115 3113 3110 3107 3104 3101 3098 3095 3093 3092 3093 3094 3093 3093 3091 3092 3092 3093 3095 3096 3099 3101 3104 3107 3110 3114 3116 3113 3123 3126 3129 3131 3134 3136 3139 3141 3143 3140 3142 3144 3145 3147
3119 3116 3113 3109 3107 3104 3102 3099 3096 3094 3091 3088 3086 3085 3087 3088 3093 3086 3086 3087 3088 3090 3093 3094 3096 3099 3102 3105 3108 3110 3113 3117 3120 3123 3126 3128 3132 3133 3136 3141 3137 3140 3141 3141 3145
3116 3112 3109 3106 3102 3098 3096 3092 3089 3087 3085 3083 3081 3080 3081 3081 3083 3081 3083 3084 3085 3087 3090 3091 3092 3096 3098 3102 3105 3105 3109 3111 3115 3118 3121 3124 3124 3127 3129 3136 3134 3137 3139 3137 3139
3110 3106 3103 3100 3097 3095 3092 3088 3085 3082 3079 3077 3075 3074 3075 3075 3076 3075 3077 3080 3081 3082 3084 3087 3088 3091 3094 3098 3100 3103 3104 3107 3109 3112 3115 3117 3118 3122 3124 3128 3129 3131 3135 3132 3133
3105 3102 3099 3096 3094 3091 3087 3082 3080 3077 3073 3071 3069 3068 3067 3072 3070 3070 3071 3073 3076 3079 3079 3081 3083 3085 3090 3095 3096 3099 3101 3101 3103 3106 3108 3113 3110 3109 3118 3121 3122 3124 3129 3127 3129
3102 3098 3094 3091 3087 3084 3082 3078 3075 3071 3068 3065 3062 3061 3060 3064 3064 3066 3066 3068 3070 3073 3075 3076 3079 3083 3087 3093 3092 3095 3096 3094 3098 3101 3103 3107 3096 3108 3113 3114 3116 3117 3124 3126 3126
3097 3093 3090 3087 3083 3079 3075 3070 3067 3064 3062 3059 3058 3057 3057 3057 3059 3060 3061 3063 3065 3069 3070 3072 3076 3080 3085 3088 3090 3090 3087 3089 3092 3094 3097 3098 3097 3102 3107 3108 3109 3113 3117 3118 3123
3091 3088 3083 3079 3075 3071 3067 3064 3061 3058 3056 3054 3053 3056 3053 3051 3052 3054 3056 3058 3062 3063 3066 3069 3073 3077 3080 3084 3082 3084 3085 3083 3085 3088 3090 3089 3089 3096 3097 3100 3103 3107 3111 3112 3116
3084 3080 3077 3073 3069 3065 3062 3059 3057 3051 3049 3049 3048 3048 3048 3047 3048 3049 3052 3054 3057 3060 3062 3065 3070 3069 3074 3078 3080 3080 3081 3079 3080 3082 3083 3082 3084 3087 3091 3094 3096 3097 3100 3102 3107
3077 3073 3070 3068 3063 3060 3055 3052 3049 3046 3037 3040 3041 3041 3043 3043 3044 3043 3048 3052 3052 3056 3061 3065 3062 3069 3073 3075 3078 3080 3079 3076 3075 3076 3076 3078 3079 3081 3083 3085 3087 3088 3089 3087 3094
3072 3068 3065 3062 3057 3054 3049 3045 3044 3040 3032 3028 3031 3031 3036 3039 3040 3039 3043 3048 3050 3054 3055 3057 3061 3066 3069 3071 3074 3074 3076 3074 3073 3073 3073 3075 3073 3074 3076 3078 3080 3083 3081 3077 3079
3065 3060 3056 3055 3053 3048 3043 3041 3040 3038 3030 3026 3021 3019 3023 3030 3031 3036 3039 3045 3049 3049 3054 3056 3059 3060 3063 3065 3069 3069 3072 3073 3072 3074 3068 3070 3060 3065 3069 3072 3075 3077 3077 3076 3078
3059 3053 3048 3043 3044 3042 3037 3036 3035 3037 3029 3019 3014 3012 3012 3016 3027 3027 3033 3040 3044 3046 3050 3050 3052 3056 3058 3060 3064 3065 3068 3070 3071 3070 3067 3065 3062 3051 3062 3067 3070 3073 3073 3075 3079
3050 3045 3039 3037 3035 3033 3031 3030 3031 3035 3017 3014 3010 3006 3009 3011 3020 3024 3026 3035 3041 3043 3045 3047 3049 3052 3054 3058 3059 3062 3065 3066 3068 3067 3063 3060 3060 3052 3055 3062 3067 3070 3068 3071 3074
3042 3038 3032 3026 3027 3026 3024 3025 3029 3019 3012 3008 3007 3007 3007 3008 3015 3016 3018 3025 3029 3035 3037 3042 3044 3047 3050 3053 3055 3058 3060 3058 3060 3058 3054 3054 3059 3053 3054 3059 3066 3066 3068 3072 3074
3033 3030 3025 3021 3020 3017 3016 3018 3015 3007 3007 3005 3003 3003 3004 3007 3008 3010 3014 3018 3023 3028 3030 3034 3038 3040 3043 3047 3049 3052 3053 3046 3045 3043 3044 3053 3053 3052 3056 3059 3063 3065 3068 3072 3074
3021 3021 3017 3014 3011 3009 3008 3005 2999 3001 3003 3000 3001 2999 2997 2997 3001 3004 3005 3009 3014 3020 3026 3027 3032 3035 3040 3043 3046 3046 3048 3048 3046 3044 3040 3042 3052 3055 3054 3059 3061 3063 3065 3068 3071
3012 3010 3007 3005 3003 3002 3000 2993 2993 2996 2997 2997 2995 2994 2992 2992 2996 2996 3000 3004 3008 3014 3021 3023 3027 3031 3036 3040 3042 3042 3044 3047 3045 3042 3040 3040 3045 3047 3054 3058 3060 3062 3063 3066 3069
3006 3002 2999 2998 2996 2993 2992 2988 2989 2989 2991 2991 2991 2990 2989 2990 2991 2992 2994 2998 3003 3009 3015 3020 3023 3029 3031 3033 3035 3040 3040 3040 3041 3040 3039 3039 3044 3046 3053 3057 3058 3059 3061 3063 3066
2999 2998 2991 2990 2991 2986 2985 2984 2981 2981 2983 2983 2984 2984 2984 2985 2983 2989 2989 2993 2998 3004 3009 3016 3020 3024 3027 3027 3030 3032 3035 3035 3038 3039 3041 3039 3043 3048 3050 3053 3055 3056 3059 3061 3062
2993 2989 2986 2985 2983 2982 2980 2979 2976 2975 2976 2978 2978 2977 2977 2980 2983 2982 2983 2987 2992 3000 3004 3010 3015 3021 3025 3029 3028 3031 3033 3034 3035 3038 3037 3039 3043 3046 3048 3051 3053 3055 3057 3058 3061
2990 2985 2984 2981 2979 2977 2975 2974 2974 2973 2968 2971 2971 2972 2972 2973 2975 2971 2976 2983 2988 2994 3001 3006 3011 3013 3016 3019 3023 3027 3030 3034 3037 3040 3041 3041 3042 3045 3049 3050 3052 3053 3055 3057 3058
2988 2984 2980 2978 2977 2975 2974 2972 2971 2969 2967 2967 2967 2966 2966 2969 2971 2970 2969 2978 2986 2992 2997 3003 3007 3012 3016 3020 3021 3023 3027 3030 3033 3036 3038 3038 3042 3044 3048 3050 3052 3052 3053 3054 3053
2984 2982 2978 2975 2974 2973 2972 2971 2968 2966 2963 2964 2964 2964 2965 2967 2969 2967 2969 2977 2982 2989 2994 2999 3005 3009 3013 3018 3021 3023 3025 3027 3030 3033 3036 3039 3041 3043 3044 3046 3047 3048 3047 3048 3047
2981 2979 2976 2973 2971 2972 2971 2969 2966 2964 2961 2959 2961 2961 2962 2965 2967 2968 2971 2972 2978 2986 2991 2997 3002 3008 3011 3016 3019 3021 3020 3023 3027 3030 3033 3036 3037 3037 3039 3041 3042 3042 3042 3042 3042